Weather in Sholya

Russia / Udmurt Republic     56°20′57″N   54°03′29″E
В апреле 2022 года жителям России запретили посещать сайт meteo.paraplan.net по решению Генеральной прокуратуры. Аудитория сайта уменьшилась в 10 раз. Владельцы сайта не видят смысла в поддержке погодного сервера в таких условиях. Сайт будет закрыт в октябре.
temp.,
°C
wind,
m/s
gust,
m/s
humid.,
%
clouds,
%
prec.,
mm/h
press.,
hPa
HPBL,
m
25 september, sun
sun2501:00+13wnw2771100 0.0 1009157
04:00+11nw3583100 0.0 1010103
07:00+11wnw248374 0.0 1009102
10:00+16nne3471100 0.0 1006424
13:00+20ene4758100 0.2 10031460
16:00+16e81576100 1.8 9991041
19:00+13e101886100 5.1 9971057
22:00+10sw61287100 9.9 1001712
26 september, mon
mon2601:00+9ssw5888100 0.1 1003657
04:00+8sw4886100 0.3 1005757
07:00+8s2488100 0.3 1007282
10:00+10sse3382100 0.3 1008472
13:00+11e2374100 0.2 1009687
16:00+10ene6780100 0.5 1010523
19:00+5ene5987100 0.3 1012388
22:00+4e5992100 0.8 1014466
27 september, tue
tue2701:00+4ene4689100 2.5 1014438
04:00+3ene4793100 4.1 1015467
07:00+3ene4791100 0.1 1017459
10:00+3ene4670100 0.1 1018552
13:00+6e3453100 0.0 1019833
16:00+7ene3450100 0.0 10191174
19:00+5ene486297 0.0 1020396
22:00+2ene377988 0.0 1022230
28 september, wed
wed2801:00+1ene368985 0.0 1022169
04:000ene369065 0.0 1022165
07:000ene398176 0.0 1023294
10:00+5e57544 0.0 1024846
13:00+7e56425 0.0 10231295
16:00+7ene674466 0.0 10231371
19:00+3e71261100 0.0 1025660
22:00+1e6137286 0.0 1026573
29 september, thu
thu2901:000e5127397 0.0 1026479
04:00−1e61373100 0.0 1026477
07:00−1e71470100 0.0 1025503
10:00+3e71153100 0.0 1026616
13:00+7e71041100 0.0 1026978
16:00+8e6103611 0.0 10261189
19:00+4e613471 0.0 1028512
22:00+2e613620 0.0 1029517